Terug naar catalogus

COSMOS 2315

ActiefMilitairPO
NORAD 23603·PAYLOAD·🇷🇺 Russia

Gelanceerd Jul 5, 1995 vanaf Plesetsk Cosmodrome

Loading…

Volgende Passages (komende 24 uur)

TLE

VersSource: Space-Track

Epoch: Sep 14, 2026, 14:22 UTC

1 23603U 95032A   26257.59891424  .00000058  00000-0  46076-4 0  9997
2 23603  82.9077 185.2900 0030286 331.5027 202.0351 13.73097698562968

Volg COSMOS 2315 in realtime met AllMySat

Download on the App Store